EHI
0 0 0 0 0 0 0 0 0 0 0 0 0 0 0 0 0 0 0 0 0 0 0 0 0 0 0 0 0 0 0 0 0 0 0 0 0 0
0 0 0 0 0 0 0 0 0 0 0 0 0 0 0 0 0 0 0 0 0 0 0 0 0 0 0 0 0 0 0 0 0 0 0 0 0 0
0 0 0 0 0 0 0 0 0 0 0 0 0 0 0 0 0 0 0 0 0 0 0 0 0 0 0 0 0 0 0 0 0 0 0 0 0 0
0 0 0 0 0 0 0 0 0 0 0 0 0 0 0 0 0 0 0 0 0 0 0 0 0 0 0 0 0 0 0 0 0 0 0 0 0 0
0 0 0 0 0 0 0 0 0 0 0 0 0 0 0 0 0 0 0 0 0 0 0 0 0 0 0 0 0 0 0 0 0 0 0 0 0 0
0 0 0 0 0 0 0 0 0 0 0 0 0 0 0 0 0 0 0 0 0 0 0 0 0 0 0 0 0 0 0 0 0 0 0 0 0 0
0 0 0 0 0 0 0 0 0 0 0 0 0 0 0 0 0 0 0 0 0 0 0 0 0 0 0 0 0 0 0 0 0 0 0 0 0 0
0 0 0 0 0 0 0 0 0 0 0 0 0 0 0 0 0 0 0 0 0 0 0 0 0 0 0 0 0 0 0 0 0 0 0 0 0 0
0 0 0 0 0 0 0 0 0 0 0 0 0 0 0 0 0 0 0 0 0 0 0 0 0 0 0 0 0 0 0 0 0 0 0 0 0 0
0 0 0 0 0 0 0 0 0 0 0 0 0 0 0 0 0 0 0 0 0 0 0 0 0 0 0 0 0 0 0 0 0 0 0 0 0 0
0 0 0 0 0 0 0 0 0 0 0 0 0 0 0 0 0 0 0 0 0 0 0 0 0 0 0 0 0 0 0 0 0 0 0 0 0 0
0 0 0 0 0 0 0 0 0 0 0 0 0 0 0 0 0 0 0 0 0 0 0 0 0 0 0 0 0 0 0 0 0 0 0 0 0 0
0 0 0 0 0 0 0 0 0 0 0 0 0 0 0 0 0 0 0 0 0 0 0 0 0 0 0 0 0 0 0 0 0 0 0 0 0 0
0 0 0 0 0 0 0 0 0 0 0 0 0 0 0 0 0 0 0 0 0 0 0 0 0 0 0 0 0 0 0 0 0 0 0 0 0 0
0 0 0 0 0 0 0 0 0 0 0 0 0 0 0 0 0 0 0 0 0 0 0 0 0 0 0 0 0 0 0 0 0 0 0 0 0 0
0 0 0 0 0 0 0 0 0 0 0 0 0 0 0 0 0 0 0 0 0 0 0 0 0 0 0 0 0 0 0 0 0 0 0 0 0 0
0 0 0 0 0 0 0 0 0 0 0 0 0 0 0 0 0 0 0 0 0 0 0 0 0 0 0 0 0 0 0 0 0 0 0 0 0 0
0 0 0 0 0 0 0 0 0 0 0 0 0 0 0 0 0 0 0 0 0 0 0 0 0 0 0 0 0 0 0 0 0 0 0 0 0 0
0 0 0 0 0 0 0 0 0 0 0 0 0 0 0 0 0 0 0 0 0 0 0 0 0 0 0 0 0 0 0 0 0 0 0 0 0 0
0 0 0 0 0 0 0 0 0 0 0 0 0 0 0 0 0 0 0 0 0 0 0 0 0 0 0 0 0 0 0 0 0 0 0 0 0 0
0 0 0 0 0 0 0 0 0 0 0 0 0 0 0 0 0 0 0 0 0 0 0 0 0 0 0 0 0 0 0 0 0 0 0 0 0 0
0 0 0 0 0 0 0 0 0 0 0 0 0 0 0 0 0 0 0 0 0 0 0 0 0 0 0 0 0 0 0 0 0 0 0 0 0 0
0 0 0 0 0 0 0 0 0 0 0 0 0 0 0 0 0 0 0 0 0 0 0 0 0 0 0 0 0 0 0 0 0 0 0 0 0 0
Wind_Speed
10 11 9 8 8 8 8 8 9 11 9 5 5 6 8 8 12 8 7 11 11 10 10 10 9 10 13 16 22 26 26 23 21 21 21 22 22 21
8 9 9 7 7 7 7 8 8 9 9 5 6 9 10 10 14 9 8 13 10 9 9 9 8 9 12 15 20 23 25 23 21 23 25 24 22 21
8 8 9 9 7 6 6 6 6 7 9 9 7 8 9 10 10 8 7 5 4 8 9 9 8 8 12 15 19 23 24 24 23 23 25 25 23 21
9 8 8 8 8 7 6 7 6 6 7 11 9 7 8 8 8 8 6 4 3 7 9 9 7 7 12 15 18 21 23 24 24 23 24 24 22 22
10 10 9 9 9 8 7 7 7 7 6 8 9 7 6 6 6 6 5 3 4 4 6 7 5 6 10 14 16 19 21 23 24 23 22 23 23 23
12 11 11 11 10 10 8 8 9 8 7 7 7 6 5 5 4 3 3 2 2 2 3 3 3 5 9 13 15 17 19 21 23 24 22 21 21 22
12 13 13 19 21 16 12 10 10 8 7 7 7 7 6 6 5 4 4 3 2 1 1 1 0 1 4 8 10 14 17 19 21 22 24 24 23 21
12 13 13 14 19 21 23 21 18 12 10 7 6 8 8 7 7 6 5 2 1 2 1 1 1 2 3 4 9 13 14 17 18 20 23 25 26 25
10 12 13 15 18 7 15 19 17 20 18 10 7 8 8 8 9 8 6 4 3 3 2 1 0 2 2 4 12 13 13 15 17 19 21 22 24 25
9 11 12 12 16 14 11 11 9 10 14 9 7 7 8 9 8 7 7 6 5 3 1 1 0 1 2 3 10 12 13 14 15 18 20 21 23 24
9 12 14 10 23 24 14 13 12 10 15 19 17 15 16 16 12 6 6 3 2 1 1 0 0 1 1 2 5 11 13 13 15 17 19 21 23 24
8 11 18 21 24 25 14 13 14 12 12 12 12 13 10 11 14 7 5 4 3 1 1 0 1 1 2 1 2 5 7 11 15 18 22 26 27 18
9 9 11 25 25 25 20 13 18 15 11 10 8 8 7 7 7 6 4 3 3 3 3 3 1 0 1 3 3 3 5 7 8 13 22 27 28 23
7 8 11 24 24 24 18 22 23 17 9 9 9 9 10 10 9 8 7 5 6 7 7 5 2 2 2 4 4 4 7 8 10 11 12 20 23 26
5 14 18 22 19 15 21 24 18 11 10 10 10 10 9 9 9 8 7 6 5 4 5 5 4 3 2 5 7 6 8 9 10 13 13 12 12 15
4 10 15 17 15 16 16 14 11 11 11 10 10 9 9 8 8 8 7 7 4 3 4 3 1 0 1 5 11 12 9 9 10 13 15 14 11 10
4 4 5 7 8 8 9 10 10 10 11 10 10 10 10 10 10 9 7 6 5 4 4 4 7 9 10 6 10 11 13 15 13 14 16 16 12 10
7 3 5 5 7 8 8 9 8 10 10 10 10 10 10 10 10 9 8 7 6 6 4 2 3 6 7 11 14 11 14 15 14 12 14 19 16 10
4 3 3 4 4 5 5 6 7 8 8 8 9 9 10 10 10 10 9 8 7 7 6 5 2 3 10 7 10 13 11 16 16 14 12 15 17 12
3 3 3 3 3 3 4 4 5 7 7 8 8 9 9 9 9 10 10 10 8 8 7 8 7 5 7 8 6 7 10 10 17 19 16 15 14 18
5 4 3 3 3 3 3 3 4 5 6 6 7 8 8 8 9 9 9 14 11 9 9 8 8 9 7 9 12 11 12 15 13 16 20 18 15 10
6 5 4 3 2 2 2 3 3 4 5 5 6 7 7 7 9 10 10 9 9 9 8 7 8 8 8 13 16 16 16 16 19 22 16 9 9 11
8 7 5 4 3 2 2 2 2 3 3 4 5 6 6 7 7 8 9 9 9 9 9 9 10 11 11 12 14 15 18 16 13 15 15 21 26 28
Wind_Direction
281 281 279 279 280 280 279 281 287 297 302 288 291 314 324 312 309 310 310 316 326 324 319 306 278 239 213 199 190 188 191 192 188 184 185 188 186 184
284 286 289 287 285 283 281 279 277 280 285 287 291 295 300 302 303 307 301 305 313 323 317 309 279 236 210 190 181 180 186 188 188 186 187 186 183 179
309 307 307 304 304 300 297 294 290 287 285 288 283 287 289 291 294 293 286 281 292 312 317 308 279 231 206 187 179 180 184 186 188 189 189 185 180 175
332 330 329 332 329 321 319 317 308 297 292 294 294 290 286 287 285 284 283 280 275 297 308 306 283 230 202 187 179 180 181 183 186 189 187 182 176 170
352 350 345 344 344 339 337 335 327 322 308 298 296 292 289 291 289 282 275 268 273 289 303 304 279 228 197 184 178 177 178 179 181 183 183 176 171 170
4 359 352 354 356 349 351 351 340 332 329 321 311 310 308 306 300 300 303 273 282 300 307 305 282 223 189 179 176 174 175 176 178 178 176 168 165 165
1 357 353 0 4 4 360 360 351 343 344 339 337 336 337 344 342 325 306 289 281 295 340 320 310 189 177 171 167 168 170 174 176 174 170 165 161 159
358 353 349 351 360 6 2 4 2 355 356 352 345 342 339 338 333 329 318 323 348 9 3 324 157 180 169 160 163 166 168 170 172 173 170 166 161 158
354 351 352 349 354 359 357 359 358 358 359 356 340 336 330 333 332 330 332 334 328 344 355 351 153 182 163 159 162 164 166 167 167 168 166 165 162 157
348 346 345 343 343 10 359 350 351 352 351 349 341 335 335 332 331 319 307 304 287 270 347 340 313 164 147 150 166 163 162 163 164 164 163 161 158 155
347 352 349 348 354 10 6 352 351 352 352 354 358 359 359 354 359 350 337 314 298 302 87 280 264 95 101 116 157 163 160 160 161 159 156 154 150 146
349 348 349 4 4 7 9 355 355 355 346 343 347 350 349 349 4 6 340 323 319 326 56 345 273 131 112 70 111 146 151 153 153 150 146 142 136 130
353 349 347 4 7 7 9 4 1 1 345 341 341 344 346 348 347 342 326 298 291 303 360 358 328 324 149 120 81 106 125 129 129 134 136 134 132 130
349 340 351 5 8 7 8 8 6 3 352 351 353 354 352 349 341 331 317 292 262 268 297 312 299 255 176 121 108 93 94 100 108 109 112 116 116 120
350 354 1 5 7 3 5 9 6 359 357 356 354 351 343 335 333 333 332 321 289 262 275 261 253 275 241 135 122 119 101 87 98 105 102 101 110 117
356 354 1 2 7 5 5 4 1 0 1 353 349 343 342 346 352 351 348 344 340 335 338 341 326 185 121 129 127 123 114 108 105 102 100 91 83 87
8 1 354 354 359 1 2 2 360 360 359 354 354 351 353 356 357 356 354 356 4 356 352 19 61 70 57 72 121 117 114 111 112 113 108 98 85 87
12 352 347 350 354 357 358 356 356 359 356 353 355 355 355 356 357 358 5 7 7 1 356 357 103 101 80 44 30 115 117 115 113 110 114 112 103 94
8 329 325 329 335 343 347 349 349 347 348 351 355 355 356 359 3 5 7 9 8 5 1 355 3 126 122 100 24 28 114 122 117 109 104 110 114 113
321 306 305 309 318 329 338 342 342 346 351 353 354 355 358 1 6 8 9 14 13 14 21 25 24 49 107 112 100 53 55 113 123 118 113 105 101 106
320 306 294 293 300 315 327 336 340 344 349 351 355 355 357 2 8 10 11 18 25 26 34 33 36 65 88 98 96 84 69 69 96 120 125 121 115 111
323 309 294 281 279 289 310 330 342 348 353 355 353 355 356 2 7 10 14 17 22 28 35 39 42 58 79 103 107 105 99 92 86 83 77 94 131 135
329 319 300 278 260 247 255 299 330 342 350 352 354 355 358 3 4 11 18 22 27 33 42 54 62 70 77 91 102 105 104 102 97 87 77 86 96 103